Weather History for West Palm Beach, FL

Change the Weather History Date:

Monday, July 8, 2013

  Actual Average Record
Temperature  
Mean Temperature 85 °F 82 °F  
Max Temperature 89 °F 90 °F 96 °F (1963)
Min Temperature 81 °F 75 °F 69 °F (1943)
Degree Days  
Heating Degree Days 0 0  
Month to date heating degree days 0 0  
Since 1 June heating degree days 0 0  
Since 1 July heating degree days 0 0  
Cooling Degree Days 20 17  
Month to date cooling degree days 157 136  
Year to date cooling degree days 1831 1735  
Since 1 June cooling degree days 646 626  
Growing Degree Days 35 (Base 50)    
Moisture  
Dew Point 70 °F    
Average Humidity 60    
Maximum Humidity 69    
Minimum Humidity 50    
Precipitation  
Precipitation 0.00 in 0.19 in 2.27 in (1941)
Month to date precipitation 1.03 1.70  
Year to date precipitation 38.71 28.71  
Snow  
Snow 0.00 in - - ()
Month to date snowfall 0.0  
Since 1 June snowfall 0.0  
Since 1 July snowfall 0.0  
Snow Depth 0.00 in    
Sea Level Pressure  
Sea Level Pressure 30.11 in    
Wind  
Wind Speed 10 mph (East)    
Max Wind Speed 17 mph    
Max Gust Speed 21 mph    
Visibility 10 miles    
Events      
T = Trace of Precipitation, MM = Missing Value Source: NWS Daily Summary

Daily Weather History Graph

Daily Weather History Graph

Search for Another Location

Airport:

Trip Planner

Search our weather history database for the weather conditions in past years. The results will help you decide how hot, cold, wet, or windy it might be!

Date:

Astronomy

Jul. 08, 2013 Rise Set
Actual Time 6:33 AM EDT 8:17 PM EDT
Civil Twilight 6:07 AM EDT 8:43 PM EDT
Nautical Twilight 5:36 AM EDT 9:14 PM EDT
Astronomical Twilight 5:03 AM EDT 9:47 PM EDT
Moon 6:53 AM EDT (7/8) 8:29 PM EDT (7/8)
Length of Visible Light 14h 35m
Length of Day
13h 43m
New Moon, 0% of the Moon is Illuminated
Jul 8
New Moon
Jul 15
First Quarter
Jul 22
Full
Jul 29
Last Quarter
Aug 6
New

Hourly Weather History & Observations

Time (EDT) Temp. Heat Index Dew Point Humidity Pressure Visibility Wind Dir Wind Speed Gust Speed Precip Events Conditions
12:53 AM 82.9 °F 88.0 °F 72.0 °F 69% 30.11 in 10.0 mi ESE 4.6 mph - N/A   Scattered Clouds
1:53 AM 82.9 °F 87.0 °F 70.0 °F 65% 30.10 in 10.0 mi ESE 6.9 mph - N/A   Partly Cloudy
2:53 AM 82.0 °F 86.3 °F 71.1 °F 69% 30.10 in 10.0 mi ESE 5.8 mph - N/A   Partly Cloudy
3:53 AM 82.0 °F 86.3 °F 71.1 °F 69% 30.09 in 10.0 mi ESE 9.2 mph - N/A   Partly Cloudy
4:53 AM 82.0 °F 86.3 °F 71.1 °F 69% 30.09 in 10.0 mi ESE 9.2 mph - N/A   Scattered Clouds
5:53 AM 82.0 °F 85.9 °F 70.0 °F 67% 30.09 in 10.0 mi ESE 8.1 mph - N/A   Scattered Clouds
6:53 AM 82.0 °F 85.5 °F 69.1 °F 65% 30.09 in 10.0 mi East 6.9 mph - N/A   Scattered Clouds
7:53 AM 84.0 °F 88.4 °F 70.0 °F 63% 30.10 in 10.0 mi East 10.4 mph - N/A   Scattered Clouds
8:53 AM 84.9 °F 88.8 °F 69.1 °F 59% 30.12 in 10.0 mi ESE 13.8 mph - N/A   Scattered Clouds
9:53 AM 86.0 °F 91.5 °F 71.1 °F 61% 30.13 in 10.0 mi East 10.4 mph - N/A   Scattered Clouds
10:53 AM 88.0 °F 93.8 °F 71.1 °F 57% 30.14 in 10.0 mi East 11.5 mph - N/A   Scattered Clouds
11:53 AM 87.1 °F 92.0 °F 70.0 °F 57% 30.16 in 10.0 mi East 12.7 mph - N/A   Mostly Cloudy
12:53 PM 87.1 °F 92.0 °F 70.0 °F 57% 30.15 in 10.0 mi East 11.5 mph - N/A   Mostly Cloudy
1:53 PM 88.0 °F 92.9 °F 70.0 °F 55% 30.14 in 10.0 mi East 15.0 mph 19.6 mph N/A   Scattered Clouds
2:53 PM 87.1 °F 93.6 °F 72.0 °F 61% 30.13 in 10.0 mi East 12.7 mph 20.7 mph N/A   Mostly Cloudy
3:53 PM 88.0 °F 90.7 °F 66.9 °F 49% 30.11 in 10.0 mi East 10.4 mph - N/A   Scattered Clouds
4:53 PM 89.1 °F 93.7 °F 69.1 °F 52% 30.09 in 10.0 mi NE 12.7 mph 18.4 mph N/A   Scattered Clouds
5:53 PM 87.1 °F 90.6 °F 68.0 °F 53% 30.09 in 10.0 mi ENE 12.7 mph - N/A   Scattered Clouds
6:53 PM 86.0 °F 90.7 °F 70.0 °F 59% 30.09 in 10.0 mi ENE 11.5 mph - N/A   Scattered Clouds
7:53 PM 84.9 °F 89.4 °F 70.0 °F 61% 30.10 in 10.0 mi East 11.5 mph - N/A   Scattered Clouds
8:53 PM 84.0 °F 88.4 °F 70.0 °F 63% 30.10 in 10.0 mi East 10.4 mph - N/A   Scattered Clouds
9:53 PM 84.0 °F 87.8 °F 69.1 °F 61% 30.12 in 10.0 mi East 10.4 mph - N/A   Scattered Clouds
10:53 PM 82.9 °F 87.0 °F 70.0 °F 65% 30.14 in 10.0 mi East 8.1 mph - N/A   Clear
11:53 PM 82.9 °F 87.0 °F 70.0 °F 65% 30.14 in 10.0 mi East 9.2 mph - N/A   Partly Cloudy